Weather History for Farmington, MO

Change the Weather History Date:

Tuesday, June 10, 2014

  Actual Average Record
Temperature  
Mean Temperature 70 °F -  
Max Temperature 78 °F 78 °F 91 °F (2006)
Min Temperature 62 °F 60 °F 55 °F (1997)
Cooling Degree Days 5    
Growing Degree Days 20 (Base 50)    
Moisture  
Dew Point 64 °F    
Average Humidity 89    
Maximum Humidity 100    
Minimum Humidity 61    
Precipitation  
Precipitation 0.13 in - - ()
Sea Level Pressure  
Sea Level Pressure 29.75 in    
Wind  
Wind Speed 7 mph (South)    
Max Wind Speed 13 mph    
Max Gust Speed 22 mph    
Visibility 9 miles    
Events Thunderstorm    
Averages and records for this station are not official NWS values.
T = Trace of Precipitation, MM = Missing Value Source: NWS Daily Summary

Daily Weather History Graph

Daily Weather History Graph

Search for Another Location

Airport:

Trip Planner

Search our weather history database for the weather conditions in past years. The results will help you decide how hot, cold, wet, or windy it might be!

Date:

Astronomy

Jun. 10, 2014 Rise Set
Actual Time 5:39 AM CDT 8:23 PM CDT
Civil Twilight 5:08 AM CDT 8:54 PM CDT
Nautical Twilight 4:29 AM CDT 9:33 PM CDT
Astronomical Twilight 3:45 AM CDT 10:17 PM CDT
Moon 5:51 PM CDT (6/10) 3:42 AM CDT (6/10)
Length of Visible Light 15h 46m
Length of Day
14h 43m
Waxing Gibbous, 92% of the Moon is Illuminated
Jun 10
Waxing Gibbous
Jun 12
Full
Jun 19
Last Quarter
Jun 27
New
Jul 5
First Quarter

Hourly Weather History & Observations

Time (CDT) Temp. Dew Point Humidity Pressure Visibility Wind Dir Wind Speed Gust Speed Precip Events Conditions
12:15 AM 66.2 °F 64.4 °F 94% 29.76 in 10.0 mi South 6.9 mph - N/A   Overcast
12:35 AM 66.2 °F 64.4 °F 94% 29.77 in 10.0 mi South 9.2 mph - N/A   Overcast
12:55 AM 66.2 °F 64.4 °F 94% 29.77 in 10.0 mi South 8.1 mph - N/A   Overcast
1:15 AM 66.2 °F 64.4 °F 94% 29.76 in 9.0 mi South 8.1 mph - N/A   Overcast
1:35 AM 66.2 °F 64.4 °F 94% 29.76 in 8.0 mi SSE 8.1 mph - N/A   Overcast
1:55 AM 66.2 °F 64.4 °F 94% 29.75 in 5.0 mi SSE 5.8 mph - N/A   Overcast
2:15 AM 66.2 °F 64.4 °F 94% 29.76 in 7.0 mi South 8.1 mph - N/A   Overcast
2:35 AM 66.2 °F 64.4 °F 94% 29.75 in 10.0 mi South 8.1 mph - N/A   Overcast
2:55 AM 66.2 °F 64.4 °F 94% 29.74 in 10.0 mi South 9.2 mph - N/A   Overcast
3:15 AM 66.2 °F 64.4 °F 94% 29.75 in 10.0 mi South 9.2 mph - N/A   Overcast
3:35 AM 66.2 °F 64.4 °F 94% 29.74 in 10.0 mi South 9.2 mph - N/A   Overcast
3:55 AM 66.2 °F 64.4 °F 94% 29.74 in 10.0 mi South 8.1 mph - N/A   Overcast
4:15 AM 66.2 °F 64.4 °F 94% 29.75 in 10.0 mi South 8.1 mph - N/A   Overcast
4:35 AM 66.2 °F 64.4 °F 94% 29.75 in 10.0 mi South 6.9 mph - N/A   Overcast
4:55 AM 66.2 °F 64.4 °F 94% 29.75 in 8.0 mi South 6.9 mph - N/A   Overcast
5:15 AM 66.2 °F 64.4 °F 94% 29.75 in 7.0 mi South 4.6 mph - N/A   Overcast
5:35 AM 66.2 °F 64.4 °F 94% 29.75 in 4.0 mi SSE 4.6 mph - N/A   Overcast
5:55 AM 66.2 °F 64.4 °F 94% 29.76 in 3.0 mi SSE 5.8 mph - N/A   Overcast
6:15 AM 66.2 °F 64.4 °F 94% 29.76 in 4.0 mi SSE 3.5 mph - N/A   Overcast
6:35 AM 66.2 °F 64.4 °F 94% 29.76 in 9.0 mi SSE 4.6 mph - N/A   Overcast
6:55 AM 66.2 °F 64.4 °F 94% 29.76 in 9.0 mi SSE 6.9 mph - N/A   Overcast
7:15 AM 66.2 °F 64.4 °F 94% 29.76 in 10.0 mi South 4.6 mph - N/A   Overcast
7:35 AM 66.2 °F 66.2 °F 100% 29.76 in 10.0 mi South 6.9 mph - N/A   Overcast
7:55 AM 66.2 °F 66.2 °F 100% 29.77 in 10.0 mi SSE 8.1 mph - N/A   Overcast
8:15 AM 68.0 °F 66.2 °F 94% 29.78 in 10.0 mi South 8.1 mph - N/A   Overcast
8:55 AM 69.8 °F 66.2 °F 88% 29.78 in 10.0 mi South 8.1 mph - N/A   Mostly Cloudy
9:15 AM 69.8 °F 66.2 °F 88% 29.78 in 10.0 mi South 6.9 mph - N/A   Overcast
9:35 AM 69.8 °F 66.2 °F 88% 29.78 in 10.0 mi South 8.1 mph - N/A   Overcast
10:15 AM 71.6 °F 66.2 °F 83% 29.77 in 10.0 mi SSW 9.2 mph - N/A   Mostly Cloudy
10:35 AM 73.4 °F 66.2 °F 78% 29.77 in 10.0 mi South 10.4 mph - N/A   Mostly Cloudy
10:55 AM 73.4 °F 66.2 °F 78% 29.77 in 10.0 mi South 10.4 mph - N/A   Mostly Cloudy
11:15 AM 73.4 °F 66.2 °F 78% 29.76 in 10.0 mi South 8.1 mph - N/A   Mostly Cloudy
11:35 AM 73.4 °F 66.2 °F 78% 29.76 in 10.0 mi South 8.1 mph - N/A   Partly Cloudy
12:15 PM 75.2 °F 66.2 °F 73% 29.76 in 10.0 mi SSE 10.4 mph - N/A   Mostly Cloudy
12:35 PM 75.2 °F 64.4 °F 69% 29.75 in 10.0 mi SSE 8.1 mph - N/A   Mostly Cloudy
12:55 PM 75.2 °F 66.2 °F 73% 29.74 in 10.0 mi SE 10.4 mph - N/A   Scattered Clouds
1:15 PM 75.2 °F 66.2 °F 73% 29.73 in 10.0 mi SSE 9.2 mph - N/A   Mostly Cloudy
1:35 PM 75.2 °F 66.2 °F 73% 29.73 in 10.0 mi SSE 12.7 mph - N/A   Scattered Clouds
2:15 PM 78.8 °F 66.2 °F 65% 29.72 in 10.0 mi SSE 6.9 mph - N/A   Scattered Clouds
2:35 PM 78.8 °F 64.4 °F 61% 29.71 in 10.0 mi East 9.2 mph - N/A   Partly Cloudy
2:55 PM 78.8 °F 66.2 °F 65% 29.71 in 10.0 mi SSE 10.4 mph - N/A Thunderstorm Mostly Cloudy
3:15 PM 73.4 °F 62.6 °F 69% 29.74 in 10.0 mi West 8.1 mph 21.9 mph N/A Thunderstorm Scattered Clouds
3:35 PM 64.4 °F 57.2 °F 77% 29.74 in 9.0 mi West 4.6 mph - N/A Thunderstorm Overcast
4:15 PM 62.6 °F 60.8 °F 94% 29.74 in 9.0 mi SW 11.5 mph - 0.08 in Thunderstorm Thunderstorm
4:35 PM 62.6 °F 60.8 °F 94% 29.74 in 9.0 mi SSW 6.9 mph - 0.10 in   Overcast
4:55 PM 62.6 °F 60.8 °F 94% 29.75 in 8.0 mi South 4.6 mph - 0.11 in Thunderstorm Mostly Cloudy
5:15 PM 62.6 °F 62.6 °F 100% 29.74 in 10.0 mi SE 3.5 mph - 0.01 in   Mostly Cloudy
5:35 PM 64.4 °F 62.6 °F 94% 29.73 in 10.0 mi SSE 4.6 mph - 0.01 in   Scattered Clouds
5:55 PM 64.4 °F 62.6 °F 94% 29.72 in 10.0 mi Calm Calm - 0.02 in   Partly Cloudy
6:15 PM 64.4 °F 62.6 °F 94% 29.73 in 10.0 mi Calm Calm - N/A   Partly Cloudy
6:35 PM 66.2 °F 62.6 °F 88% 29.73 in 10.0 mi Calm Calm - N/A   Mostly Cloudy
6:55 PM 66.2 °F 62.6 °F 88% 29.74 in 10.0 mi Calm Calm - N/A   Mostly Cloudy
7:15 PM 66.2 °F 62.6 °F 88% 29.74 in 10.0 mi West 3.5 mph - N/A   Overcast
7:35 PM 66.2 °F 62.6 °F 88% 29.74 in 10.0 mi Calm Calm - N/A   Overcast
7:55 PM 66.2 °F 62.6 °F 88% 29.74 in 10.0 mi Calm Calm - N/A   Scattered Clouds
8:15 PM 64.4 °F 62.6 °F 94% 29.73 in 10.0 mi Calm Calm - N/A   Clear
8:35 PM 64.4 °F 62.6 °F 94% 29.73 in 10.0 mi South 3.5 mph - N/A   Clear
8:55 PM 64.4 °F 62.6 °F 94% 29.73 in 10.0 mi Calm Calm - N/A   Clear
9:15 PM 62.6 °F 60.8 °F 94% 29.73 in 10.0 mi Calm Calm - N/A   Clear
9:35 PM 62.6 °F 60.8 °F 94% 29.73 in 6.0 mi Calm Calm - N/A   Clear
10:15 PM 62.6 °F 60.8 °F 94% 29.75 in 10.0 mi Calm Calm - N/A   Clear
10:35 PM 62.6 °F 60.8 °F 94% 29.75 in 10.0 mi Calm Calm - N/A   Mostly Cloudy
10:55 PM 62.6 °F 62.6 °F 100% 29.75 in 10.0 mi Calm Calm - N/A   Overcast
11:15 PM 62.6 °F 60.8 °F 94% 29.75 in 10.0 mi Calm Calm - N/A   Mostly Cloudy
11:35 PM 62.6 °F 60.8 °F 94% 29.75 in 9.0 mi Calm Calm - N/A   Mostly Cloudy
11:55 PM 62.6 °F 60.8 °F 94% 29.76 in 2.5 mi Calm Calm - N/A   Overcast